Home > Weather > Acharnes > Past weeks

Flag for Greece Past Weather in Acharnes, Greece — Yesterday and Last 2 Weeks

Now
79 °F

Clear.


Feels Like: 79 °F
Forecast: 72 / 90 °F
Wind: 7 mph from North

Location: Elefsis Airport

Current Time: Jul 24, 2016 at 6:07:30 AM

Latest Report: Jul 24, 2016 at 4:50 AM


Visibility: 10 mi

Pressure: 29.89 "Hg

Humidity: 34%

Dew Point: 48 °F

Location of AcharnesLocation

Past Weather in Acharnes — Graph

°F

Acharnes Temperature Yesterday

Maximum temperature yesterday: 99 °F (at 4:20 PM)
Minimum temperature yesterday: 72 °F (at 2:50 AM)
Average temperature yesterday: 86 °F

High & Low Weather Summary for the Past Weeks

 TemperatureHumidityPressure
High99 °F (Jul 23, 4:20 PM)88% (Jul 19, 3:50 AM)30.01 "Hg (Jul 19, 3:50 AM)
Low59 °F (Jul 19, 3:50 AM)14% (Jul 10, 4:50 PM)29.68 "Hg (Jul 15, 5:20 PM)
Average84 °F34%29.86 "Hg
* Reported Jul 9 4:20 AM — Jul 24 4:50 AM, Acharnes, Weather by CustomWeather, © 2016

Note: Actual official high and low records may vary slightly from our data, if they occured in-between our weather recording intervals... More about our weather records

Advertising

Acharnes Weather History for the Previous 24 Hours

Scroll right to see more
 ConditionsComfort  
Time TempWeatherWind HumidityBarometerVisibility
4:50 AM
Sun, Jul 24
79 °FClear.7 mph34%29.89 "Hg10 mi
4:20 AM79 °FClear.6 mph34%29.89 "Hg10 mi
3:50 AM79 °FClear.6 mph34%29.89 "Hg10 mi
3:20 AM81 °FClear.6 mph32%29.89 "Hg10 mi
2:50 AM81 °FClear.7 mph32%29.89 "Hg10 mi
2:20 AM82 °FClear.6 mph32%29.89 "Hg10 mi
1:20 AM82 °FClear.6 mph32%29.89 "Hg10 mi
12:50 AM82 °FClear.6 mph35%29.89 "Hg10 mi
12:20 AM86 °FClear.5 mph29%29.98 "Hg10 mi
11:50 PM
Sat, Jul 23
86 °FClear.6 mph29%29.98 "Hg10 mi
11:20 PM86 °FClear.7 mph27%29.89 "Hg10 mi
10:50 PM86 °FClear.7 mph27%29.89 "Hg10 mi
10:20 PM86 °FClear.7 mph27%29.89 "Hg10 mi
9:50 PM86 °FClear.7 mph27%29.89 "Hg10 mi
9:20 PM90 °FSunny.8 mph24%29.89 "Hg10 mi
8:20 PM91 °FSunny.8 mph23%29.89 "Hg10 mi
7:50 PM93 °FSunny.9 mph20%29.89 "Hg10 mi
7:20 PM95 °FSunny.12 mph19%29.89 "Hg10 mi
6:50 PM95 °FSunny.10 mph19%29.89 "Hg10 mi
6:20 PM97 °FSunny.9 mph17%29.89 "Hg10 mi
5:50 PM97 °FSunny.9 mph17%29.86 "Hg10 mi
5:20 PM97 °FSunny.8 mph17%29.89 "Hg10 mi
4:50 PM97 °FSunny.9 mph17%29.89 "Hg10 mi
4:20 PM99 °FSunny.8 mph16%29.89 "Hg10 mi
3:50 PM97 °FSunny.9 mph18%29.89 "Hg10 mi
3:20 PM97 °FSunny.9 mph18%29.92 "Hg10 mi
2:50 PM97 °FSunny.7 mph18%29.92 "Hg10 mi
2:20 PM97 °FSunny.9 mph19%29.92 "Hg10 mi
1:50 PM95 °FSunny.7 mph20%29.92 "Hg10 mi
1:20 PM95 °FSunny.8 mph19%29.95 "Hg10 mi
12:50 PM95 °FSunny.10 mph19%29.95 "Hg10 mi
12:20 PM93 °FSunny.9 mph20%29.95 "Hg10 mi
11:50 AM93 °FSunny.7 mph19%29.95 "Hg10 mi
11:20 AM91 °FSunny.3 mph21%29.95 "Hg10 mi
10:50 AM91 °FSunny.9 mph21%29.95 "Hg10 mi
10:20 AM90 °FSunny.9 mph22%29.95 "Hg10 mi
9:50 AM88 °FSunny.8 mph25%29.95 "Hg10 mi
9:20 AM86 °FSunny.7 mph27%29.95 "Hg10 mi
8:50 AM84 °FSunny.7 mph29%29.95 "Hg10 mi
8:20 AM82 °FSunny.6 mph30%29.95 "Hg10 mi
7:50 AM79 °FSunny.5 mph34%29.95 "Hg10 mi
7:20 AM75 °FClear.6 mph39%29.95 "Hg10 mi
6:50 AM73 °FClear.7 mph41%29.95 "Hg10 mi
6:20 AM73 °FClear.No wind44%29.95 "Hg10 mi
Weather by CustomWeather, © 2016

See weather overviewHow to use our weather pages